• In Uzbekistan
  • List of Countries
  • For 7 days
  • Water Temperature
  • Weather Map
  • Weather Widgets
  • user-avatar
    Login

    Hourly Weather Bangor

    Today, 7 June, Sunday

    Time Temperature Precipitation Wind Pressure Humidity
    00:00 +6°C° 0 mm 2 mps 736 mmHg 94%
    01:00 +6°C° 0 mm 2 mps 736 mmHg 94%
    02:00 +6°C° 0 mm 2 mps 736 mmHg 94%
    03:00 +6°C° 0 mm 2 mps 736 mmHg 94%
    04:00 +7°C° 0 mm 2 mps 737 mmHg 93%
    05:00 +8°C° 0 mm 2 mps 737 mmHg 92%
    06:00 +10°C° 0 mm 1 mps 738 mmHg 90%
    07:00 +10°C° 0 mm 2 mps 738 mmHg 84%
    08:00 +12°C° 0 mm 2 mps 739 mmHg 78%
    09:00 +14°C° 0 mm 2 mps 739 mmHg 73%
    10:00 +14°C° 0.2 mm 2 mps 740 mmHg 73%
    11:00 +15°C° 0.2 mm 2 mps 740 mmHg 74%
    12:00 +15°C° 0.2 mm 2 mps 741 mmHg 75%
    13:00 +15°C° 0.3 mm 2 mps 741 mmHg 75%
    14:00 +16°C° 0.3 mm 2 mps 741 mmHg 75%
    15:00 +16°C° 0.3 mm 3 mps 741 mmHg 76%
    16:00 +16°C° 0.7 mm 3 mps 741 mmHg 78%
    17:00 +14°C° 0.7 mm 3 mps 742 mmHg 81%
    18:00 +14°C° 0.7 mm 3 mps 742 mmHg 84%
    19:00 +13°C° 0.2 mm 3 mps 742 mmHg 87%
    20:00 +11°C° 0.2 mm 3 mps 743 mmHg 90%
    21:00 +10°C° 0.2 mm 3 mps 744 mmHg 93%
    22:00 +9°C° 0 mm 2 mps 744 mmHg 93%
    23:00 +9°C° 0 mm 2 mps 744 mmHg 93%

    Tomorrow, 8 June, Monday

    Time Temperature Precipitation Wind Pressure Humidity
    00:00 +8°C° 0 mm 2 mps 744 mmHg 94%
    01:00 +8°C° 0 mm 2 mps 744 mmHg 94%
    02:00 +7°C° 0 mm 2 mps 745 mmHg 94%
    03:00 +7°C° 0 mm 2 mps 745 mmHg 94%
    04:00 +7°C° 0 mm 2 mps 745 mmHg 93%
    05:00 +8°C° 0 mm 2 mps 745 mmHg 92%
    06:00 +8°C° 0 mm 2 mps 746 mmHg 91%
    07:00 +9°C° 0 mm 2 mps 746 mmHg 88%
    08:00 +10°C° 0 mm 2 mps 746 mmHg 85%
    09:00 +10°C° 0 mm 2 mps 747 mmHg 82%
    10:00 +12°C° 0 mm 2 mps 747 mmHg 78%
    11:00 +13°C° 0 mm 2 mps 747 mmHg 75%
    12:00 +14°C° 0 mm 2 mps 747 mmHg 71%
    13:00 +14°C° 0.3 mm 2 mps 747 mmHg 74%
    14:00 +14°C° 0.3 mm 1 mps 747 mmHg 76%
    15:00 +14°C° 0.3 mm 1 mps 747 mmHg 79%
    16:00 +14°C° 0.2 mm 1 mps 747 mmHg 81%
    17:00 +13°C° 0.2 mm 1 mps 747 mmHg 83%
    18:00 +13°C° 0.2 mm 1 mps 746 mmHg 86%
    19:00 +12°C° 0.1 mm 1 mps 747 mmHg 87%
    20:00 +12°C° 0.1 mm 1 mps 747 mmHg 88%
    21:00 +10°C° 0.1 mm 0 mps 747 mmHg 90%
    22:00 +9°C° 0 mm 0 mps 747 mmHg 90%
    23:00 +10°C° 0 mm 1 mps 747 mmHg 90%

    Day after tomorrow, 9 June, Tuesday

    Time Temperature Precipitation Wind Pressure Humidity
    00:00 +9°C° 0 mm 1 mps 747 mmHg 91%
    01:00 +9°C° 0 mm 1 mps 747 mmHg 91%
    02:00 +9°C° 0 mm 1 mps 747 mmHg 91%
    03:00 +8°C° 0 mm 1 mps 747 mmHg 90%
    04:00 +9°C° 0 mm 1 mps 747 mmHg 90%
    05:00 +10°C° 0 mm 1 mps 747 mmHg 89%
    06:00 +10°C° 0 mm 1 mps 747 mmHg 88%
    07:00 +11°C° 0 mm 1 mps 747 mmHg 85%
    08:00 +12°C° 0 mm 1 mps 747 mmHg 82%
    09:00 +13°C° 0 mm 1 mps 748 mmHg 79%
    10:00 +14°C° 0.1 mm 2 mps 747 mmHg 76%
    11:00 +15°C° 0.1 mm 2 mps 747 mmHg 73%
    12:00 +15°C° 0.1 mm 2 mps 747 mmHg 70%
    13:00 +16°C° 0.1 mm 3 mps 747 mmHg 69%
    14:00 +16°C° 0.1 mm 3 mps 747 mmHg 68%
    15:00 +16°C° 0.1 mm 3 mps 746 mmHg 66%
    16:00 +16°C° 0.1 mm 3 mps 746 mmHg 70%
    17:00 +14°C° 0.1 mm 3 mps 746 mmHg 73%
    18:00 +14°C° 0.1 mm 3 mps 746 mmHg 77%
    19:00 +12°C° 0 mm 3 mps 746 mmHg 81%
    20:00 +12°C° 0 mm 2 mps 746 mmHg 85%
    21:00 +10°C° 0 mm 2 mps 746 mmHg 90%
    22:00 +10°C° 0 mm 1 mps 746 mmHg 90%
    23:00 +10°C° 0 mm 1 mps 746 mmHg 90%

    10 June, Wednesday

    Time Temperature Precipitation Wind Pressure Humidity
    00:00 +10°C° 0 mm 1 mps 745 mmHg 91%
    01:00 +10°C° 0.1 mm 1 mps 745 mmHg 92%
    02:00 +10°C° 0.1 mm 1 mps 745 mmHg 92%
    03:00 +10°C° 0.1 mm 1 mps 745 mmHg 93%
    04:00 +10°C° 0 mm 1 mps 745 mmHg 92%
    05:00 +11°C° 0 mm 1 mps 745 mmHg 90%
    06:00 +11°C° 0 mm 1 mps 744 mmHg 89%
    07:00 +12°C° 0.1 mm 1 mps 744 mmHg 84%
    08:00 +13°C° 0.1 mm 1 mps 744 mmHg 80%
    09:00 +14°C° 0.1 mm 1 mps 744 mmHg 75%
    10:00 +14°C° 0.1 mm 2 mps 744 mmHg 75%
    11:00 +14°C° 0.1 mm 2 mps 744 mmHg 75%
    12:00 +15°C° 0.1 mm 2 mps 744 mmHg 75%
    13:00 +14°C° 0.3 mm 2 mps 743 mmHg 76%
    14:00 +13°C° 0.3 mm 3 mps 743 mmHg 78%
    15:00 +13°C° 0.3 mm 3 mps 742 mmHg 79%
    16:00 +13°C° 0.2 mm 3 mps 742 mmHg 81%
    17:00 +13°C° 0.2 mm 2 mps 741 mmHg 83%
    18:00 +13°C° 0.2 mm 2 mps 741 mmHg 85%
    19:00 +13°C° 1.3 mm 2 mps 741 mmHg 89%
    20:00 +12°C° 1.3 mm 2 mps 740 mmHg 93%
    21:00 +10°C° 1.3 mm 3 mps 740 mmHg 97%
    22:00 +10°C° 1.2 mm 3 mps 740 mmHg 97%
    23:00 +10°C° 1.2 mm 3 mps 739 mmHg 97%

    11 June, Thursday

    Time Temperature Precipitation Wind Pressure Humidity
    00:00 +10°C° 1.2 mm 3 mps 739 mmHg 97%
    01:00 +9°C° 0.9 mm 3 mps 739 mmHg 97%
    02:00 +9°C° 0.9 mm 3 mps 738 mmHg 97%
    03:00 +8°C° 0.9 mm 4 mps 738 mmHg 97%
    04:00 +8°C° 1.3 mm 4 mps 738 mmHg 97%
    05:00 +8°C° 1.3 mm 5 mps 738 mmHg 96%
    06:00 +8°C° 1.3 mm 6 mps 738 mmHg 96%
    07:00 +8°C° 0.4 mm 6 mps 738 mmHg 96%
    08:00 +9°C° 0.4 mm 6 mps 739 mmHg 95%
    09:00 +9°C° 0.4 mm 6 mps 739 mmHg 95%
    10:00 +9°C° 0.3 mm 7 mps 739 mmHg 92%
    11:00 +10°C° 0.3 mm 7 mps 739 mmHg 90%
    12:00 +11°C° 0.3 mm 7 mps 739 mmHg 87%
    13:00 +11°C° 0.4 mm 7 mps 738 mmHg 86%
    14:00 +12°C° 0.4 mm 7 mps 738 mmHg 85%
    15:00 +14°C° 0.4 mm 7 mps 737 mmHg 84%
    16:00 +12°C° 0.7 mm 7 mps 737 mmHg 87%
    17:00 +12°C° 0.7 mm 8 mps 737 mmHg 90%
    18:00 +11°C° 0.7 mm 8 mps 737 mmHg 93%
    19:00 +11°C° 0.8 mm 8 mps 737 mmHg 94%
    20:00 +11°C° 0.8 mm 9 mps 737 mmHg 95%
    21:00 +11°C° 0.8 mm 9 mps 737 mmHg 96%
    22:00 +10°C° 0.6 mm 9 mps 737 mmHg 96%
    23:00 +10°C° 0.6 mm 9 mps 736 mmHg 95%

    12 June, Friday

    Time Temperature Precipitation Wind Pressure Humidity
    00:00 +8°C° 0.6 mm 9 mps 736 mmHg 95%
    01:00 +8°C° 0.1 mm 9 mps 735 mmHg 95%
    02:00 +8°C° 0.1 mm 9 mps 735 mmHg 95%
    03:00 +8°C° 0.1 mm 9 mps 735 mmHg 95%
    04:00 +8°C° 0 mm 9 mps 735 mmHg 95%
    05:00 +8°C° 0 mm 9 mps 735 mmHg 94%
    06:00 +10°C° 0 mm 9 mps 735 mmHg 94%
    07:00 +10°C° 0.5 mm 9 mps 735 mmHg 94%
    08:00 +11°C° 0.5 mm 8 mps 735 mmHg 94%
    09:00 +11°C° 0.5 mm 8 mps 735 mmHg 94%
    10:00 +11°C° 1.9 mm 7 mps 735 mmHg 95%
    11:00 +12°C° 1.9 mm 5 mps 735 mmHg 95%
    12:00 +12°C° 1.9 mm 3 mps 735 mmHg 96%
    13:00 +11°C° 3 mm 3 mps 735 mmHg 95%
    14:00 +12°C° 3 mm 2 mps 735 mmHg 94%
    15:00 +12°C° 3 mm 1 mps 735 mmHg 93%
    16:00 +13°C° 0 mm 1 mps 735 mmHg 89%
    17:00 +14°C° 0 mm 2 mps 736 mmHg 85%
    18:00 +15°C° 0 mm 2 mps 736 mmHg 82%
    19:00 +12°C° 0 mm 3 mps 736 mmHg 86%
    20:00 +11°C° 0 mm 3 mps 737 mmHg 90%
    21:00 +10°C° 0 mm 3 mps 737 mmHg 94%
    22:00 +10°C° 0 mm 3 mps 737 mmHg 94%
    23:00 +9°C° 0 mm 3 mps 737 mmHg 94%
    Show more